840  
ASUS41 KRLX 270010  
RWRRLX  
CRWRWRRLX ALL  
WEST VIRGINIA REGIONAL WEATHER ROUNDUP  
NATIONAL WEATHER SERVICE CHARLESTON WV  
ISSUED BY NATIONAL WEATHER SERVICE PITTSBURGH PA  
800 PM EDT SUN MAR 26 2017  
 
NOTE: "FAIR" INDICATES FEW OR NO CLOUDS BELOW 12,000 FEET WITH NO  
SIGNIFICANT WEATHER AND/OR S TO VISIBILITY
.  
 
WVZ003-270100-  
NORTHERN PANHANDLE OF WEST VIRGINIA  
 
CITY SKY/WX TMP DP RH WIND PRES REMARKS
 
WHEELING LGT RAIN 56 51 84 SE14 29.96F  

 
 
WVZ009-270100-  
NORTHWEST WEST VIRGINIA  
 
CITY SKY/WX TMP DP RH WIND PRES REMARKS
 
PARKERSBURG LGT RAIN 57 54 89 S8 30.01S  

 
 
WVZ006-270100-  
WESTERN WEST VIRGINIA  
 
CITY SKY/WX TMP DP RH WIND PRES REMARKS
 
HUNTINGTON LGT RAIN 60 56 86 S6 29.97S  

 
 
WVZ015-270100-  
WEST CENTRAL WEST VIRGINIA  
 
CITY SKY/WX TMP DP RH WIND PRES REMARKS
 
CHARLESTON MOCLDY 60 57 89 E5 30.01S  

 
 
WVZ031-270100-  
NORTH CENTRAL WEST VIRGINIA  
 
CITY SKY/WX TMP DP RH WIND PRES REMARKS
 
CLARKSBURG RAIN 57 55 93 SE3 30.05S FOG  
MORGANTOWN LGT RAIN 55 52 89 E3 30.08R FOG  

 
 
WVZ035-042-270100-  
SOUTH CENTRAL WEST VIRGINIA  
 
CITY SKY/WX TMP DP RH WIND PRES REMARKS
 
BECKLEY LGT RAIN 57 52 83 SE13 30.06S  
BLUEFIELD NOT AVBL  

 
 
WVZ045-270100-  
GREENBRIER VALLEY OF WEST VIRGINIA  
 
CITY SKY/WX TMP DP RH WIND PRES REMARKS
 
LEWISBURG RAIN 59 51 75 CALM 30.10S  

 
 
WVZ047-270100-  
NORTHERN MOUNTAINS OF WEST VIRGINIA  
 
CITY SKY/WX TMP DP RH WIND PRES REMARKS
 
ELKINS LGT RAIN 61 48 62 VRB7 30.07R  

 
 
WVZ052-270100-  
EASTERN PANHANDLE OF WEST VIRGINIA  
 
CITY SKY/WX TMP DP RH WIND PRES REMARKS
 
MARTINSBURG CLOUDY 46 44 93 SE6 30.20S FOG  
PETERSBURG LGT RAIN 52 46 81 NW3 30.15R  

 
 
 
CLICK HERE TO GO TO PREVIOUS BULLETINS.

The Nexlab WV Page
The Nexlab OH Page
The Nexlab KY Page
The Nexlab VA Page Main Text Page